Temp
67 68 75 73 73 71 73 74 74 74 72 72 70 70 70 71 71 69 70 71 71 71 71 72 73 73 73 73 73 74 73 72 73
63 65 70 74 73 70 73 75 74 75 73 73 71 72 70 70 70 70 71 71 70 70 71 74 74 73 73 74 74 73 73 72 72
62 64 66 71 74 73 73 76 76 75 74 73 73 73 71 73 71 71 71 71 71 72 72 73 73 73 73 73 74 74 73 72 72
60 63 63 68 70 73 73 77 75 74 74 73 72 73 73 72 71 72 71 70 71 72 72 73 72 73 73 73 73 73 72 72 72
62 64 66 67 69 68 70 71 73 72 75 74 75 75 74 73 72 71 71 71 71 72 71 72 72 72 70 71 73 71 72 72 73
62 65 64 65 65 65 67 69 71 72 73 72 72 72 73 73 71 70 71 71 71 71 72 72 71 71 71 71 71 71 71 71 71
63 64 65 65 64 65 66 66 66 66 67 68 69 69 70 70 70 71 73 72 71 71 71 71 71 72 72 72 71 71 72 72 72
65 65 66 65 65 65 66 66 66 67 66 66 67 67 67 68 68 69 70 71 72 72 71 72 71 72 72 71 72 74 72 72 72
64 65 65 65 65 65 65 66 67 67 68 67 67 67 67 67 66 67 69 69 70 70 71 71 72 71 72 72 75 71 69 72 72
61 62 65 65 65 64 64 65 66 65 66 68 67 67 67 67 67 66 66 68 69 69 70 69 70 71 71 72 72 67 67 68 71
61 62 63 63 64 65 65 65 65 66 66 66 66 66 66 67 67 66 66 67 68 69 69 69 70 70 71 71 70 64 64 66 70
61 61 62 62 62 63 63 63 64 64 65 66 65 65 66 67 66 66 67 67 68 67 67 68 68 69 70 69 67 59 61 65 69
62 62 62 62 61 60 60 60 63 63 63 63 63 65 66 67 67 67 67 67 68 68 67 66 67 66 66 63 62 59 59 63 67
62 61 60 60 59 57 57 61 62 62 63 63 64 67 66 66 66 67 66 65 65 65 65 65 64 62 61 60 61 60 58 59 65
60 60 60 59 57 58 60 61 61 62 62 63 66 66 66 66 65 65 64 63 63 63 63 62 62 61 59 59 59 57 57 57 57
59 59 58 58 57 60 59 60 60 60 61 62 65 65 63 62 61 61 62 61 60 60 61 60 60 59 58 57 57 57 55 54 56
57 57 57 57 58 60 58 59 59 59 60 64 64 62 60 58 57 55 55 56 55 57 59 59 58 57 57 57 57 57 56 56 56
57 57 57 57 57 60 59 57 59 60 61 62 60 59 58 57 56 54 50 48 50 53 49 48 58 58 57 56 55 54 50 53 55
57 57 56 56 57 60 56 59 59 60 61 61 60 58 57 55 54 54 53 52 50 47 46 45 44 47 52 51 48 48 45 45 46
57 57 57 57 57 57 56 56 59 59 61 61 59 57 56 54 54 53 53 53 53 51 50 46 43 43 43 45 44 44 44 44 46
MSLP
1011.38 1011.58 1011.47 1011.82 1011.97 1012.37 1012.83 1013.20 1013.77 1014.38 1014.92 1015.43 1015.91 1016.11 1016.38 1016.52 1016.98 1017.23 1017.54 1017.74 1017.92 1017.97 1018.07 1018.11 1018.11 1018.45 1018.70 1018.73 1018.72 1018.77 1018.91 1019.14 1019.11
1011.77 1011.60 1011.12 1011.33 1011.80 1012.02 1012.20 1012.77 1013.16 1013.65 1014.36 1014.91 1015.30 1015.78 1016.09 1016.24 1016.49 1016.88 1017.20 1017.39 1017.46 1017.59 1017.73 1017.75 1017.83 1018.09 1018.44 1018.33 1018.46 1018.66 1018.77 1019.03 1019.15
1011.89 1011.33 1011.16 1011.08 1010.84 1011.43 1011.75 1011.98 1012.67 1013.23 1013.63 1014.17 1014.47 1015.10 1015.67 1016.00 1016.10 1016.28 1016.60 1016.96 1017.05 1017.17 1017.23 1017.36 1017.62 1017.92 1018.10 1018.31 1018.21 1018.26 1018.66 1018.91 1019.10
1012.26 1011.80 1011.18 1010.82 1010.63 1010.63 1011.34 1011.80 1012.38 1012.76 1013.03 1013.64 1014.13 1014.37 1015.02 1015.44 1015.82 1016.03 1016.25 1016.53 1016.72 1016.87 1016.97 1017.12 1017.33 1017.61 1017.82 1018.03 1018.14 1018.27 1018.55 1018.75 1018.92
1012.28 1011.65 1011.14 1010.44 1010.16 1010.20 1010.93 1011.09 1011.66 1012.39 1012.69 1013.10 1013.29 1013.65 1014.34 1014.86 1015.30 1015.70 1015.97 1016.19 1016.38 1016.63 1016.86 1016.91 1016.92 1017.20 1017.77 1017.86 1017.95 1018.22 1018.36 1018.52 1018.61
1011.95 1011.62 1010.90 1010.67 1010.34 1010.57 1010.99 1011.56 1011.66 1012.28 1012.69 1012.70 1013.00 1013.34 1013.96 1014.49 1014.93 1015.30 1015.65 1015.87 1016.06 1016.30 1016.58 1016.77 1016.96 1017.04 1017.18 1017.39 1017.65 1017.86 1018.11 1018.31 1018.39
1011.73 1011.74 1011.42 1011.06 1011.42 1011.37 1011.65 1012.05 1012.37 1012.67 1012.89 1013.15 1013.09 1013.12 1013.59 1014.04 1014.51 1014.82 1015.09 1015.32 1015.66 1015.92 1016.11 1016.44 1016.62 1016.72 1016.80 1016.86 1017.05 1017.44 1017.69 1017.91 1018.00
1011.84 1011.84 1010.58 1011.37 1011.93 1012.11 1012.28 1012.49 1012.50 1013.04 1013.38 1013.56 1013.58 1013.46 1013.62 1013.74 1014.24 1014.46 1014.59 1014.90 1015.16 1015.35 1015.69 1015.88 1016.10 1016.37 1016.35 1016.45 1016.71 1016.84 1017.11 1017.32 1017.45
1011.87 1012.17 1011.13 1011.45 1011.48 1012.16 1011.95 1012.64 1013.04 1012.51 1013.47 1013.66 1013.59 1013.65 1013.70 1013.87 1014.22 1014.45 1014.46 1014.37 1014.66 1014.93 1015.09 1015.27 1015.51 1015.85 1016.05 1016.21 1016.16 1016.15 1016.34 1016.57 1016.89
1012.05 1012.43 1012.41 1012.04 1012.33 1012.41 1012.74 1013.07 1012.96 1013.07 1012.99 1013.06 1013.48 1013.61 1013.81 1013.68 1014.53 1014.45 1014.35 1014.23 1014.20 1014.34 1014.62 1014.85 1014.97 1015.22 1015.53 1015.72 1015.74 1015.73 1015.71 1015.91 1016.22
1012.11 1012.59 1012.80 1013.09 1013.44 1013.74 1013.32 1013.41 1013.16 1013.02 1012.72 1013.07 1013.46 1013.59 1013.52 1013.80 1014.27 1014.29 1014.15 1014.15 1014.05 1013.80 1013.82 1014.20 1014.33 1014.43 1014.64 1015.04 1015.28 1015.37 1015.35 1015.49 1015.76
1012.63 1012.97 1013.24 1013.31 1013.83 1013.50 1013.36 1013.36 1013.41 1013.35 1013.63 1013.72 1013.77 1013.62 1013.15 1013.45 1013.79 1013.90 1014.18 1014.09 1013.97 1013.95 1013.47 1013.59 1013.99 1013.91 1014.05 1014.49 1014.91 1015.30 1015.27 1015.23 1015.40
1013.17 1013.59 1013.98 1014.19 1014.41 1014.17 1014.09 1014.26 1013.91 1013.60 1013.86 1013.75 1013.66 1013.51 1013.35 1013.46 1013.34 1013.34 1013.25 1013.55 1013.76 1013.98 1013.75 1013.61 1013.91 1014.17 1014.40 1014.72 1015.33 1015.63 1015.59 1015.82 1015.53
1013.57 1013.86 1014.29 1014.56 1014.66 1014.71 1014.63 1014.46 1014.19 1013.74 1013.65 1013.71 1013.24 1012.84 1012.73 1012.89 1013.16 1013.38 1013.53 1013.84 1014.11 1014.12 1013.90 1014.02 1014.33 1014.65 1015.16 1015.59 1015.79 1016.11 1016.14 1016.12 1015.92
1013.83 1014.09 1014.36 1014.55 1014.76 1014.73 1014.75 1014.55 1014.29 1014.04 1013.77 1013.77 1013.12 1012.95 1013.07 1013.34 1013.58 1013.84 1014.22 1014.08 1014.28 1014.00 1014.40 1014.44 1014.65 1015.78 1015.44 1016.09 1016.80 1016.71 1016.59 1016.39 1016.29
1014.06 1014.30 1014.52 1014.57 1014.62 1014.51 1014.54 1014.51 1014.52 1014.29 1013.92 1013.49 1013.20 1013.20 1013.57 1013.84 1014.18 1014.40 1014.48 1014.56 1014.63 1014.60 1014.83 1015.34 1015.47 1016.00 1015.77 1016.57 1016.95 1017.15 1017.05 1016.73 1016.46
1014.27 1014.38 1014.41 1014.48 1014.67 1014.72 1014.59 1014.53 1014.54 1014.19 1013.93 1013.54 1013.42 1013.70 1014.13 1014.40 1014.66 1015.09 1015.49 1015.62 1015.56 1015.71 1015.88 1016.16 1016.06 1016.16 1016.14 1016.89 1016.02 1016.70 1017.21 1016.90 1016.54
1014.00 1014.19 1014.36 1014.44 1014.51 1014.59 1014.64 1014.63 1014.63 1014.53 1014.31 1014.02 1014.01 1014.35 1014.66 1015.17 1015.34 1015.82 1016.38 1016.68 1016.85 1016.61 1017.03 1016.93 1016.54 1016.89 1017.24 1017.16 1017.11 1017.59 1017.22 1017.54 1017.17
1014.11 1014.39 1014.45 1014.49 1014.43 1014.40 1014.49 1014.52 1014.52 1014.50 1014.25 1014.28 1014.52 1014.99 1015.22 1015.65 1016.14 1016.41 1016.89 1017.19 1017.46 1017.51 1017.80 1017.33 1017.05 1017.20 1017.47 1017.87 1017.84 1017.65 1017.77 1017.79 1017.96
1013.90 1014.02 1014.18 1014.18 1014.30 1014.45 1014.68 1014.69 1014.54 1014.49 1014.49 1014.61 1014.85 1015.20 1015.67 1016.06 1016.30 1016.54 1017.11 1017.32 1017.38 1017.61 1017.95 1017.89 1017.82 1017.79 1017.73 1018.05 1018.33 1018.44 1018.67 1018.79 1018.51
Wind_Speed
6 7 11 11 15 12 14 14 13 13 12 11 9 8 8 7 7 4 5 6 5 4 4 4 5 5 6 6 6 6 4 2 2
3 3 5 13 12 12 13 14 16 15 12 12 9 10 7 7 7 7 6 7 5 4 4 3 5 6 6 7 6 6 5 3 3
2 2 4 8 12 14 12 14 13 13 13 15 12 11 8 7 7 7 6 5 6 5 5 5 6 6 6 6 6 6 5 3 3
6 3 5 5 10 13 12 10 11 13 13 14 12 12 10 8 7 7 6 6 6 6 4 5 6 6 6 7 6 5 4 5 5
3 4 5 7 8 9 12 14 10 12 12 13 13 12 11 10 8 7 7 7 7 6 6 5 6 6 6 6 6 5 6 6 6
5 7 4 7 6 7 6 5 8 11 11 11 8 9 9 8 8 8 8 7 7 7 7 7 6 5 6 6 7 6 6 6 6
2 5 3 6 5 7 9 6 6 4 4 1 4 7 9 10 9 10 9 8 7 7 7 7 7 7 7 7 6 6 6 6 6
4 6 6 8 2 3 7 7 7 6 4 3 3 3 5 6 4 5 7 7 7 8 8 8 7 8 8 7 6 6 7 7 7
8 4 2 6 7 2 6 6 5 6 6 6 4 5 4 3 3 4 5 6 6 6 8 9 9 8 8 8 7 10 13 9 6
3 5 6 7 5 2 4 4 4 5 3 6 5 4 3 4 3 3 2 3 6 7 8 6 8 9 8 9 8 11 12 12 6
6 7 6 7 6 3 3 2 1 2 4 4 5 7 5 1 4 5 3 4 5 6 5 8 8 9 9 8 5 7 9 6 6
3 5 3 5 2 2 3 3 2 2 1 5 6 7 8 10 7 4 5 4 5 5 4 4 5 5 6 7 5 1 6 7 5
6 7 6 6 3 4 5 5 5 0 2 2 3 4 6 6 6 8 5 3 4 3 5 3 3 4 5 6 5 5 6 5 0
5 5 7 6 5 4 1 4 5 2 2 2 4 4 3 2 3 3 4 3 2 3 4 5 3 5 6 6 6 5 7 9 4
7 7 6 5 5 4 2 3 4 3 3 5 4 4 5 5 5 4 3 6 3 6 4 7 6 5 5 6 3 6 5 6 5
6 6 5 4 5 3 3 4 3 3 4 5 1 7 7 8 8 6 5 5 5 5 5 4 3 4 4 3 2 2 8 9 7
6 5 5 4 5 4 3 4 4 4 6 4 5 7 7 6 7 7 7 5 5 4 4 3 4 3 4 3 3 3 2 3 5
5 5 4 3 5 4 1 1 1 3 3 3 6 5 6 5 5 6 5 6 4 4 3 3 3 3 2 2 3 2 4 2 3
6 6 5 4 3 4 2 1 2 2 3 4 6 5 4 3 4 4 3 4 5 11 5 7 8 7 3 2 2 4 7 8 9
5 3 4 5 5 4 3 2 3 1 2 4 5 5 5 3 4 4 3 2 3 4 4 9 11 10 9 7 5 6 7 5 6
Wind_Direction
180 213 198 183 185 182 187 184 182 183 188 198 192 186 207 193 208 186 190 196 205 215 207 205 187 203 202 206 209 201 205 226 217
51 267 220 182 187 187 186 190 192 189 186 198 191 199 194 199 184 184 191 205 196 206 216 209 210 203 203 207 217 203 197 206 233
249 263 234 232 176 187 195 196 194 191 188 197 197 191 192 201 192 188 199 192 199 204 221 208 207 218 214 213 212 201 193 206 223
295 296 285 245 218 179 180 191 194 195 191 193 190 186 192 187 197 197 190 194 203 211 217 222 215 219 220 209 206 212 209 229 224
262 248 301 294 203 156 165 185 184 199 201 201 196 193 189 197 190 191 194 200 199 188 212 224 217 199 205 201 207 211 213 226 212
345 344 354 28 73 124 120 152 184 190 206 203 197 179 189 195 195 184 201 203 198 188 197 207 209 209 204 212 206 212 210 217 222
312 306 41 84 55 103 102 90 79 105 129 214 177 169 178 183 192 198 205 207 200 201 204 202 208 209 215 208 208 211 218 214 224
314 297 67 68 132 69 118 106 100 79 86 145 174 161 182 156 171 203 191 202 219 206 201 212 211 218 218 211 209 218 214 212 216
249 238 55 38 60 139 85 122 161 158 190 224 198 182 149 128 163 189 204 195 214 220 220 206 205 214 218 226 223 214 215 204 209
124 72 75 114 138 136 142 169 182 242 216 188 193 164 188 169 231 275 286 278 214 208 220 217 207 216 212 224 226 221 217 207 218
127 123 98 92 111 126 95 125 109 300 292 230 184 172 179 214 232 246 295 301 282 231 195 215 214 214 212 216 226 233 240 215 217
101 120 99 88 103 90 84 75 83 79 359 211 198 199 191 191 211 220 235 259 272 272 204 192 217 217 208 199 180 143 182 174 191
102 106 115 111 74 49 41 338 317 306 270 199 231 237 202 201 195 211 209 244 304 275 250 247 144 78 56 65 82 37 6 304 157
118 120 125 124 100 80 352 314 318 290 278 298 306 278 234 216 176 128 100 110 146 124 75 88 94 93 72 65 55 41 0 321 278
135 135 137 128 108 99 39 354 339 345 8 324 311 108 100 89 89 93 93 105 124 90 86 95 85 20 92 76 51 16 353 342 321
152 145 144 132 117 77 36 10 360 331 333 321 47 90 83 80 68 55 49 47 40 69 78 71 98 139 92 33 104 82 46 52 58
151 154 143 142 115 86 37 11 349 341 319 318 90 84 86 78 78 71 45 39 27 29 41 105 92 75 75 206 72 67 10 43 65
158 148 146 154 136 124 96 44 15 345 344 73 86 88 91 84 83 82 77 63 27 52 44 330 63 78 92 39 72 22 42 28 84
168 165 165 167 145 120 118 5 70 51 48 94 107 105 87 91 103 100 103 111 97 62 54 53 69 71 90 56 26 111 98 88 81
181 189 191 159 156 140 139 126 79 39 90 113 111 116 126 124 121 121 138 141 125 122 56 64 56 57 58 54 90 77 98 100 108